Location: Groß Eilstorf
(52.8200°N, 9.4552°E)
Time: 12:28:55
(UTC+00:00)

NOSS 3-3 (A) - Pass Details

Date: 15 May 2026
Orbit: 691 x 1518 km, 63.4° (Epoch: 11 January)

Event Time Altitude Azimuth Distance (km) Brightness Sun altitude
Rises 19:57:40 0° 215° (SW) 3,160 6.6 -6.1°
Reaches altitude 10° 19:59:52 10° 213° (SSW) 2,303 5.9 -6.3°
Maximum altitude 20:05:05 70° 131° (SE) 914 3.7 -6.9°
Drops below altitude 10° 20:11:25 10° 49° (NE) 2,779 6.4 -7.6°
Sets 20:14:18 0° 47° (NE) 3,868 7.1 -7.9°
